• Join FlightAware (Why Join?)
  • Login
  • US Flag 
08:05PM EST


 

Airport Tracker/Info


-or-


 

Live Flight TrackerFlight Track Log ✈ SWA1969 ✈ 18-Apr-2013 ✈ KMDW - KPHX

Flight Track Log - Related Links

Times and Time Zones

All times are in EDT time to prevent confusion due to time zone crossing. See the SWA1969 flight status page for this flight to view local times or setup timezone preferences in your user account.

Time Position Orientation Groundspeed Altitude Reporting Facility
EDT Latitude Longitude Course Direction KTS MPH feet Rate Location/Type
02:33PM 41.7667 -87.7667 200° South 137 158 2,300  Level Chicago TRACON
02:34PM 41.7333 -87.7833 200° South 188 216 3,000 1,560 Climbing Chicago TRACON
02:36PM 41.7514 -87.8853 283° West 209 241 6,200 2,580 Climbing Chicago Center
02:37PM 41.7639 -87.9825 280° West 232 267 9,500 2,580 Climbing Chicago Center
02:38PM 41.7775 -88.0794 281° West 269 310 11,500 2,100 Climbing Chicago Center
02:39PM 41.7742 -88.1828 268° West 280 322 13,900 1,800 Climbing Chicago Center
02:40PM 41.7719 -88.3058 269° West 328 377 15,200 1,500 Climbing Chicago Center
02:41PM 41.7717 -88.4403 270° West 361 415 17,100 2,340 Climbing Chicago Center
02:42PM 41.7775 -88.6083 273° West 379 436 20,000 2,220 Climbing Chicago Center
02:43PM 41.7503 -88.7464 255° West 383 441 21,700 1,740 Climbing Chicago Center
02:44PM 41.7192 -88.8858 253° West 391 450 23,700 1,800 Climbing Chicago Center
02:45PM 41.6881 -89.0239 253° West 393 452 25,500 1,560 Climbing Chicago Center
02:46PM 41.6575 -89.1644 254° West 395 455 26,900 1,200 Climbing Chicago Center
02:47PM 41.6258 -89.3097 254° West 407 468 28,000 1,680 Climbing Chicago Center
02:48PM 41.5883 -89.4819 254° West 404 465 30,400 1,860 Climbing Chicago Center
02:49PM 41.5600 -89.6008 252° West 390 449 31,900 1,560 Climbing Chicago Center
02:50PM 41.5306 -89.7342 254° West 378 435 33,600 1,020 Climbing Chicago Center
02:51PM 41.5014 -89.8647 253° West 371 427 34,000 180 Climbing Chicago Center
02:52PM 41.4650 -90.0217 253° West 371 427 34,000  Level Chicago Center
02:53PM 41.4344 -90.1528 253° West 372 428 34,000  Level Chicago Center
02:54PM 41.4058 -90.2814 254° West 368 423 34,000  Level Chicago Center
02:55PM 41.3761 -90.4106 253° West 367 422 34,000  Level Chicago Center
02:56PM 41.3458 -90.5403 253° West 367 422 34,000  Level Chicago Center
02:57PM 41.3128 -90.6719 252° West 376 433 34,000  Level Chicago Center
02:59PM 41.2753 -90.7972 248° West 369 425 34,000 60 Level Chicago Center
03:00PM 41.2306 -90.9458 248° West 363 418 34,200 480 Climbing Chicago Center
03:01PM 41.1942 -91.0686 249° West 361 415 35,000 360 Climbing Chicago Center
03:02PM 41.1578 -91.1922 249° West 360 414 35,000  Level Chicago Center
03:03PM 41.1208 -91.3133 248° West 357 411 35,000  Level Chicago Center
03:04PM 41.0850 -91.4361 249° West 356 410 35,000 240 Level Chicago Center
03:05PM 41.0478 -91.5589 248° West 359 413 35,500 480 Climbing Chicago Center
03:06PM 41.0083 -91.6878 248° West 356 410 36,000 240 Climbing Chicago Center
03:07PM 40.9708 -91.8086 248° West 358 412 36,000  Level Chicago Center
03:08PM 40.9333 -91.9311 248° West 362 417 36,000  Level Chicago Center
03:09PM 40.8950 -92.0556 248° West 368 423 36,000  Level Chicago Center
03:10PM 40.8489 -92.2061 248° West 373 429 36,000  Level Chicago Center
03:11PM 40.8092 -92.3322 247° West 375 432 36,000  Level Chicago Center
03:12PM 40.7694 -92.4592 248° West 379 436 36,000  Level Chicago Center
03:13PM 40.7294 -92.5861 247° West 380 437 36,000  Level Chicago Center
03:14PM 40.6889 -92.7139 247° West 382 440 36,000  Level Chicago Center
03:15PM 40.6492 -92.8417 248° West 383 441 36,000  Level Chicago Center
03:16PM 40.6008 -92.9914 247° West 377 434 36,000  Level Chicago Center
03:16PM 40.5883 -93.0269 245° Southwest 375 432 36,000  Level Kansas City Center
03:17PM 40.5450 -93.1650 248° West 373 429 36,000  Level Kansas City Center
03:18PM 40.5044 -93.2900 247° West 376 433 36,000  Level Kansas City Center
03:19PM 40.4642 -93.4158 247° West 377 434 36,000  Level Kansas City Center
03:20PM 40.4222 -93.5406 246° West 378 435 36,000  Level Kansas City Center
03:21PM 40.3814 -93.6656 247° West 378 435 36,000  Level Kansas City Center
03:22PM 40.3406 -93.7900 247° West 375 432 36,000  Level Kansas City Center
03:23PM 40.2917 -93.9417 247° West 380 437 36,000  Level Kansas City Center
03:25PM 40.2500 -94.0656 246° West 377 434 36,000  Level Kansas City Center
03:26PM 40.2083 -94.1931 247° West 375 432 36,000  Level Kansas City Center
03:27PM 40.1683 -94.3106 246° West 371 427 36,000  Level Kansas City Center
03:28PM 40.1219 -94.4486 246° West 371 427 36,000  Level Kansas City Center
03:29PM 40.0833 -94.5661 247° West 369 425 36,000  Level Kansas City Center
03:30PM 40.0358 -94.7025 246° West 372 428 36,000  Level Kansas City Center
03:31PM 39.9950 -94.8222 246° West 376 433 36,000  Level Kansas City Center
03:32PM 39.9481 -94.9592 246° West 373 429 36,000  Level Kansas City Center
03:33PM 39.9042 -95.0761 244° Southwest 374 430 36,000  Level Kansas City Center
03:34PM 39.8611 -95.1931 244° Southwest 376 433 36,000  Level Kansas City Center
03:35PM 39.8117 -95.3275 244° Southwest 373 429 36,000  Level Kansas City Center
03:36PM 39.7692 -95.4419 244° Southwest 369 425 36,000  Level Kansas City Center
03:37PM 39.7186 -95.5744 244° Southwest 369 425 36,000  Level Kansas City Center
03:38PM 39.6767 -95.6878 244° Southwest 365 420 36,000  Level Kansas City Center
03:39PM 39.6261 -95.8208 244° Southwest 368 423 36,000  Level Kansas City Center
03:40PM 39.5831 -95.9339 244° Southwest 365 420 36,000  Level Kansas City Center
03:41PM 39.5322 -96.0656 243° Southwest 367 422 36,000  Level Kansas City Center
03:42PM 39.4939 -96.1658 244° Southwest 367 422 36,000  Level Kansas City Center
03:43PM 39.4397 -96.3069 244° Southwest 366 421 36,000  Level Kansas City Center
03:44PM 39.3947 -96.4228 243° Southwest 363 418 36,000  Level Kansas City Center
03:45PM 39.3522 -96.5319 243° Southwest 363 418 36,000  Level Kansas City Center
03:46PM 39.3014 -96.6625 243° Southwest 364 419 36,000  Level Kansas City Center
03:47PM 39.2575 -96.7744 243° Southwest 365 420 36,000  Level Kansas City Center
03:48PM 39.2078 -96.9067 244° Southwest 366 421 36,000  Level Kansas City Center
03:49PM 39.1619 -97.0186 242° Southwest 367 422 36,000  Level Kansas City Center
03:50PM 39.1100 -97.1514 243° Southwest 370 426 36,000  Level Kansas City Center
03:51PM 39.0669 -97.2650 244° Southwest 371 427 36,000  Level Kansas City Center
03:52PM 39.0214 -97.3811 243° Southwest 376 433 36,000  Level Kansas City Center
03:53PM 38.9675 -97.5150 243° Southwest 378 435 36,000  Level Kansas City Center
03:54PM 38.9222 -97.6303 243° Southwest 379 436 36,000  Level Kansas City Center
03:55PM 38.8789 -97.7744 249° West 388 447 36,000  Level Kansas City Center
03:56PM 38.8428 -97.8864 248° West 388 447 36,000  Level Kansas City Center
03:57PM 38.7950 -98.0406 248° West 389 448 36,000  Level Kansas City Center
03:58PM 38.7556 -98.1678 248° West 387 445 36,000  Level Kansas City Center
03:59PM 38.7150 -98.2953 248° West 388 447 36,000  Level Kansas City Center
04:01PM 38.6758 -98.4231 249° West 388 447 36,000  Level Kansas City Center
04:02PM 38.6344 -98.5519 248° West 392 451 36,000  Level Kansas City Center
04:03PM 38.5933 -98.6819 248° West 395 455 36,000  Level Kansas City Center
04:04PM 38.5450 -98.8375 248° West 394 453 36,000  Level Kansas City Center
04:05PM 38.5014 -98.9683 247° West 399 459 36,000  Level Kansas City Center
04:06PM 38.4600 -99.0975 248° West 398 458 36,000  Level Kansas City Center
04:07PM 38.4175 -99.2256 247° West 394 453 36,000  Level Kansas City Center
04:08PM 38.3764 -99.3547 248° West 394 453 36,000  Level Kansas City Center
04:09PM 38.3339 -99.4828 247° West 393 452 36,000  Level Kansas City Center
04:10PM 38.2858 -99.6300 247° West 393 452 36,000  Level Kansas City Center
04:11PM 38.2458 -99.7533 248° West 393 452 36,000  Level Kansas City Center
04:12PM 38.1981 -99.8981 247° West 397 457 36,000  Level Kansas City Center
04:13PM 38.1569 -100.0211 247° West 396 456 36,000  Level Kansas City Center
04:14PM 38.1083 -100.1647 247° West 397 457 36,000  Level Kansas City Center
04:15PM 38.0683 -100.2881 248° West 396 456 36,000  Level Kansas City Center
04:16PM 38.0250 -100.4344 249° West 397 457 36,000  Level Kansas City Center
04:17PM 37.9869 -100.5589 249° West 396 456 36,000  Level Kansas City Center
04:18PM 37.9436 -100.7025 249° West 395 455 36,000  Level Kansas City Center
04:19PM 37.9058 -100.8244 249° West 392 451 36,000  Level Kansas City Center
04:20PM 37.8628 -100.9650 249° West 389 448 36,000  Level Kansas City Center
04:21PM 37.8256 -101.0858 249° West 389 448 36,000  Level Kansas City Center
04:22PM 37.7817 -101.2269 249° West 390 449 36,000  Level Kansas City Center
04:23PM 37.7436 -101.3511 249° West 395 455 36,000  Level Kansas City Center
04:24PM 37.6986 -101.4947 248° West 395 455 36,000  Level Kansas City Center
04:25PM 37.6597 -101.6192 248° West 398 458 36,000  Level Kansas City Center
04:26PM 37.6206 -101.7431 248° West 398 458 36,000  Level Kansas City Center
04:27PM 37.5753 -101.8878 248° West 397 457 36,000  Level Kansas City Center
04:28PM 37.5431 -101.9917 249° West 398 458 36,000  Level Albuquerque Center
04:29PM 37.5044 -102.1164 249° West 398 458 36,000  Level Albuquerque Center
04:30PM 37.4586 -102.2611 248° West 400 460 36,000  Level Albuquerque Center
04:31PM 37.4183 -102.3861 248° West 402 463 36,000  Level Albuquerque Center
04:32PM 37.3722 -102.5281 248° West 404 465 36,000  Level Albuquerque Center
04:33PM 37.3319 -102.6539 248° West 405 466 36,000  Level Albuquerque Center
04:34PM 37.2842 -102.7994 248° West 404 465 36,000  Level Albuquerque Center
04:35PM 37.2431 -102.9236 247° West 402 463 36,000  Level Albuquerque Center
04:36PM 37.1947 -103.0697 247° West 405 466 36,000  Level Albuquerque Center
04:37PM 37.1511 -103.1967 247° West 410 472 36,000  Level Albuquerque Center
04:38PM 37.1028 -103.3431 248° West 407 468 36,000  Level Albuquerque Center
04:39PM 37.0606 -103.4697 247° West 410 472 36,000  Level Albuquerque Center
04:40PM 37.0181 -103.5967 247° West 410 472 36,000  Level Albuquerque Center
04:41PM 36.9678 -103.7436 247° West 409 471 36,000  Level Albuquerque Center
04:43PM 36.9250 -103.8689 247° West 408 470 36,000  Level Albuquerque Center
04:44PM 36.8767 -104.0133 247° West 405 466 36,000  Level Albuquerque Center
04:45PM 36.8328 -104.1381 246° West 406 467 36,000  Level Albuquerque Center
04:46PM 36.7828 -104.2817 247° West 404 465 36,000  Level Albuquerque Center
04:47PM 36.7400 -104.4042 246° West 403 464 36,000  Level Albuquerque Center
04:48PM 36.6903 -104.5469 247° West 401 461 36,000  Level Albuquerque Center
04:49PM 36.6433 -104.6825 247° West 407 468 36,000  Level Albuquerque Center
04:50PM 36.5981 -104.8125 247° West 407 468 36,000  Level Albuquerque Center
04:51PM 36.5533 -104.9425 247° West 407 468 36,000  Level Albuquerque Center
04:52PM 36.5069 -105.0717 246° West 407 468 36,000  Level Albuquerque Center
04:53PM 36.4589 -105.2086 246° West 410 472 36,000  Level Albuquerque Center
04:54PM 36.4122 -105.3367 246° West 421 484 36,000  Level Albuquerque Center
04:55PM 36.3661 -105.4681 246° West 418 481 36,000  Level Albuquerque Center
04:56PM 36.3144 -105.6103 246° West 411 473 36,000  Level Albuquerque Center
04:57PM 36.2681 -105.7383 246° West 408 470 36,000  Level Albuquerque Center
04:58PM 36.2219 -105.8653 246° West 406 467 36,000  Level Albuquerque Center
04:59PM 36.1772 -105.9942 247° West 407 468 36,000  Level Albuquerque Center
05:00PM 36.1308 -106.1167 245° Southwest 399 459 36,000  Level Albuquerque Center
05:01PM 36.0767 -106.2672 246° West 400 460 36,000  Level Albuquerque Center
05:02PM 36.0300 -106.3919 245° Southwest 401 461 36,000  Level Albuquerque Center
05:03PM 35.9847 -106.5175 246° West 401 461 36,000  Level Albuquerque Center
05:04PM 35.9381 -106.6406 245° Southwest 399 459 36,000  Level Albuquerque Center
05:05PM 35.8897 -106.7722 246° West 400 460 36,000  Level Albuquerque Center
05:06PM 35.8381 -106.9119 246° West 400 460 36,000  Level Albuquerque Center
05:07PM 35.7922 -107.0328 245° Southwest 404 465 36,000  Level Albuquerque Center
05:08PM 35.7386 -107.1728 245° Southwest 404 465 36,000  Level Albuquerque Center
05:09PM 35.6939 -107.2922 245° Southwest 403 464 36,000  Level Albuquerque Center
05:10PM 35.6411 -107.4311 245° Southwest 402 463 36,000  Level Albuquerque Center
05:11PM 35.5958 -107.5494 245° Southwest 401 461 36,000  Level Albuquerque Center
05:13PM 35.5433 -107.6875 245° Southwest 400 460 36,000  Level Albuquerque Center
05:14PM 35.4975 -107.8069 245° Southwest 401 461 36,000  Level Albuquerque Center
05:15PM 35.4519 -107.9247 245° Southwest 400 460 36,000  Level Albuquerque Center
05:16PM 35.3978 -108.0661 245° Southwest 405 466 36,000  Level Albuquerque Center
05:17PM 35.3500 -108.1872 244° Southwest 408 470 36,000  Level Albuquerque Center
05:18PM 35.2953 -108.3278 245° Southwest 409 471 36,000  Level Albuquerque Center
05:19PM 35.2486 -108.4469 244° Southwest 406 467 36,000  Level Albuquerque Center
05:20PM 35.1939 -108.5861 244° Southwest 405 466 36,000  Level Albuquerque Center
05:21PM 35.1475 -108.7039 244° Southwest 403 464 36,000  Level Albuquerque Center
05:22PM 35.0928 -108.8408 244° Southwest 401 461 36,000  Level Albuquerque Center
05:23PM 35.0472 -108.9572 244° Southwest 397 457 36,000  Level Albuquerque Center
05:24PM 34.9922 -109.0931 244° Southwest 398 458 36,000  Level Albuquerque Center
05:25PM 34.9478 -109.2094 245° Southwest 397 457 36,000  Level Albuquerque Center
05:26PM 34.9053 -109.3278 246° West 396 456 36,000  Level Albuquerque Center
05:27PM 34.8564 -109.4642 246° West 394 453 36,000  Level Albuquerque Center
05:28PM 34.8114 -109.5750 244° Southwest 387 445 36,000  Level Albuquerque Center
05:29PM 34.7614 -109.7122 246° West 392 451 36,000  Level Albuquerque Center
05:30PM 34.7181 -109.8283 246° West 394 453 36,000  Level Albuquerque Center
05:31PM 34.6672 -109.9664 246° West 398 458 36,000  Level Albuquerque Center
05:32PM 34.6247 -110.0833 246° West 396 456 36,000 -60 Level Albuquerque Center
05:33PM 34.5769 -110.2233 248° West 400 460 35,900 -1,260 Descending Albuquerque Center
05:34PM 34.5311 -110.3328 243° Southwest 388 447 33,400 -2,160 Descending Albuquerque Center
05:35PM 34.4903 -110.4511 247° West 410 472 31,500 -2,280 Descending Albuquerque Center
05:36PM 34.4356 -110.5958 245° Southwest 399 459 28,800 -2,340 Descending Albuquerque Center
05:37PM 34.3914 -110.7119 245° Southwest 385 443 26,700 -2,040 Descending Albuquerque Center
05:38PM 34.3381 -110.8189 239° Southwest 377 434 24,700 -2,040 Descending Albuquerque Center
05:39PM 34.2658 -110.9106 226° Southwest 374 430 22,600 -2,040 Descending Albuquerque Center
05:40PM 34.1950 -111.0028 227° Southwest 375 432 20,600 -1,920 Descending Albuquerque Center
05:41PM 34.1258 -111.0908 227° Southwest 366 421 18,700 -2,040 Descending Albuquerque Center
05:43PM 34.0447 -111.1953 227° Southwest 358 412 16,400 -2,100 Descending Albuquerque Center
05:44PM 33.9767 -111.2828 227° Southwest 356 410 14,400 -1,920 Descending Albuquerque Center
05:45PM 33.9108 -111.3669 227° Southwest 348 400 12,500 -1,560 Descending Albuquerque Center
05:46PM 33.8411 -111.4411 221° Southwest 333 383 11,200 -1,020 Descending Albuquerque Center
05:47PM 33.7681 -111.5022 215° Southwest 318 366 10,400 -1,020 Descending Albuquerque Center
05:48PM 33.6994 -111.5614 216° Southwest 301 346 9,200 -900 Descending Albuquerque Center
05:49PM 33.6364 -111.6158 216° Southwest 279 321 8,600 -1,080 Descending Albuquerque Center
05:50PM 33.5628 -111.6767 215° Southwest 268 308 7,000 -1,500 Descending Albuquerque Center
05:51PM 33.5017 -111.7283 215° Southwest 269 310 5,600 -1,200 Descending Albuquerque Center
05:52PM 33.4606 -111.7828 228° Southwest 220 253 4,600 -960 Descending Albuquerque Center
05:53PM 33.4408 -111.8394 247° West 193 222 3,600 -960 Descending Albuquerque Center
05:54PM 33.4406 -111.8944 270° West 170 196 2,700 -840 Descending Albuquerque Center
05:55PM 33.4411 -111.9453 271° West 155 178 1,900 -780 Descending Albuquerque Center
05:56PM 33.4397 -111.9975 268° West 154 177 1,100 -780 Descending Albuquerque Center
05:58PM 33.4343 -112.0116 270° West  Level Estimated